• In Russia
  • List of Countries
  • For 7 days
  • Water Temperature
  • Satellite Maps
  • Weather Map
  • Weather Widgets
  • user-avatar
    Login

    Hourly Weather Shaki

    Today, 28 March, Tuesday

    Time Temperature Precipitation Wind Pressure Humidity
    00:00 +10°C° 0 mm 2 mps 730 mmHg 61%
    01:00 +10°C° 0 mm 2 mps 730 mmHg 62%
    02:00 +9°C° 0 mm 2 mps 730 mmHg 63%
    03:00 +10°C° 0 mm 1 mps 730 mmHg 64%
    04:00 +9°C° 0.1 mm 2 mps 731 mmHg 67%
    05:00 +8°C° 0.1 mm 2 mps 731 mmHg 71%
    06:00 +8°C° 0.1 mm 3 mps 732 mmHg 74%
    07:00 +9°C° 0.2 mm 3 mps 733 mmHg 69%
    08:00 +10°C° 0.2 mm 4 mps 733 mmHg 64%
    09:00 +10°C° 0.2 mm 5 mps 734 mmHg 60%
    10:00 +12°C° 0.1 mm 5 mps 734 mmHg 54%
    11:00 +12°C° 0.1 mm 5 mps 734 mmHg 48%
    12:00 +13°C° 0.1 mm 6 mps 734 mmHg 42%
    13:00 +13°C° 0 mm 5 mps 734 mmHg 41%
    14:00 +13°C° 0 mm 5 mps 734 mmHg 39%
    15:00 +13°C° 0 mm 5 mps 734 mmHg 37%
    16:00 +12°C° 0 mm 4 mps 734 mmHg 39%
    17:00 +10°C° 0 mm 3 mps 734 mmHg 42%
    18:00 +9°C° 0 mm 2 mps 734 mmHg 45%
    19:00 +8°C° 0 mm 2 mps 735 mmHg 45%
    20:00 +7°C° 0 mm 2 mps 735 mmHg 45%
    21:00 +6°C° 0 mm 2 mps 736 mmHg 45%
    22:00 +5°C° 0 mm 3 mps 735 mmHg 45%
    23:00 +5°C° 0 mm 3 mps 735 mmHg 45%

    Tomorrow, 29 March, Wednesday

    Time Temperature Precipitation Wind Pressure Humidity
    00:00 +5°C° 0 mm 3 mps 735 mmHg 45%
    01:00 +4°C° 0 mm 4 mps 735 mmHg 43%
    02:00 +4°C° 0 mm 4 mps 735 mmHg 41%
    03:00 +4°C° 0 mm 4 mps 734 mmHg 40%
    04:00 +4°C° 0 mm 4 mps 735 mmHg 39%
    05:00 +4°C° 0 mm 4 mps 735 mmHg 39%
    06:00 +4°C° 0 mm 4 mps 735 mmHg 39%
    07:00 +6°C° 0 mm 4 mps 735 mmHg 36%
    08:00 +9°C° 0 mm 5 mps 735 mmHg 33%
    09:00 +12°C° 0 mm 5 mps 735 mmHg 29%
    10:00 +13°C° 0 mm 5 mps 735 mmHg 28%
    11:00 +14°C° 0 mm 6 mps 735 mmHg 27%
    12:00 +15°C° 0 mm 6 mps 735 mmHg 26%
    13:00 +16°C° 0 mm 6 mps 735 mmHg 27%
    14:00 +16°C° 0 mm 6 mps 735 mmHg 27%
    15:00 +16°C° 0 mm 6 mps 735 mmHg 28%
    16:00 +14°C° 0 mm 5 mps 735 mmHg 32%
    17:00 +12°C° 0 mm 4 mps 736 mmHg 36%
    18:00 +11°C° 0 mm 3 mps 737 mmHg 41%
    19:00 +10°C° 0 mm 2 mps 737 mmHg 42%
    20:00 +8°C° 0 mm 2 mps 738 mmHg 43%
    21:00 +8°C° 0 mm 1 mps 739 mmHg 44%
    22:00 +7°C° 0 mm 2 mps 739 mmHg 51%
    23:00 +6°C° 0 mm 2 mps 740 mmHg 57%

    Day after tomorrow, 30 March, Thursday

    Time Temperature Precipitation Wind Pressure Humidity
    00:00 +6°C° 0 mm 2 mps 740 mmHg 64%
    01:00 +5°C° 0 mm 2 mps 740 mmHg 70%
    02:00 +4°C° 0 mm 2 mps 740 mmHg 76%
    03:00 +5°C° 0 mm 1 mps 741 mmHg 83%
    04:00 +5°C° 0 mm 1 mps 741 mmHg 84%
    05:00 +5°C° 0 mm 1 mps 741 mmHg 86%
    06:00 +4°C° 0 mm 1 mps 741 mmHg 87%
    07:00 +7°C° 0 mm 1 mps 741 mmHg 77%
    08:00 +8°C° 0 mm 2 mps 741 mmHg 67%
    09:00 +10°C° 0 mm 2 mps 741 mmHg 57%
    10:00 +12°C° 0 mm 2 mps 740 mmHg 52%
    11:00 +14°C° 0 mm 2 mps 739 mmHg 47%
    12:00 +15°C° 0 mm 2 mps 739 mmHg 43%
    13:00 +15°C° 0 mm 2 mps 738 mmHg 41%
    14:00 +16°C° 0 mm 2 mps 737 mmHg 39%
    15:00 +16°C° 0 mm 2 mps 736 mmHg 37%
    16:00 +14°C° 0 mm 1 mps 736 mmHg 43%
    17:00 +12°C° 0 mm 1 mps 736 mmHg 48%
    18:00 +11°C° 0 mm 1 mps 736 mmHg 54%
    19:00 +10°C° 0 mm 1 mps 736 mmHg 54%
    20:00 +9°C° 0 mm 1 mps 736 mmHg 54%
    21:00 +8°C° 0 mm 1 mps 737 mmHg 54%
    22:00 +8°C° 0 mm 1 mps 736 mmHg 53%
    23:00 +7°C° 0 mm 2 mps 736 mmHg 51%

    31 March, Friday

    Time Temperature Precipitation Wind Pressure Humidity
    00:00 +7°C° 0 mm 2 mps 736 mmHg 49%
    01:00 +7°C° 0 mm 2 mps 735 mmHg 49%
    02:00 +7°C° 0 mm 3 mps 735 mmHg 48%
    03:00 +7°C° 0 mm 3 mps 735 mmHg 48%
    04:00 +7°C° 0 mm 3 mps 735 mmHg 49%
    05:00 +7°C° 0 mm 3 mps 735 mmHg 49%
    06:00 +7°C° 0 mm 3 mps 736 mmHg 50%
    07:00 +10°C° 0 mm 3 mps 736 mmHg 43%
    08:00 +13°C° 0 mm 3 mps 736 mmHg 36%
    09:00 +16°C° 0 mm 3 mps 736 mmHg 30%
    10:00 +17°C° 0 mm 3 mps 736 mmHg 28%
    11:00 +18°C° 0 mm 3 mps 736 mmHg 26%
    12:00 +20°C° 0 mm 3 mps 736 mmHg 24%
    13:00 +20°C° 0 mm 3 mps 736 mmHg 24%
    14:00 +20°C° 0 mm 3 mps 736 mmHg 24%
    15:00 +20°C° 0 mm 2 mps 737 mmHg 24%
    16:00 +18°C° 0 mm 2 mps 737 mmHg 27%
    17:00 +16°C° 0 mm 2 mps 738 mmHg 31%
    18:00 +14°C° 0 mm 1 mps 738 mmHg 35%
    19:00 +13°C° 0 mm 2 mps 739 mmHg 37%
    20:00 +11°C° 0 mm 3 mps 739 mmHg 39%
    21:00 +11°C° 0 mm 4 mps 740 mmHg 41%
    22:00 +10°C° 0 mm 4 mps 740 mmHg 51%
    23:00 +8°C° 0 mm 4 mps 740 mmHg 61%

    1 April, Saturday

    Time Temperature Precipitation Wind Pressure Humidity
    00:00 +7°C° 0 mm 4 mps 740 mmHg 70%
    01:00 +7°C° 0.2 mm 4 mps 740 mmHg 76%
    02:00 +7°C° 0.2 mm 4 mps 740 mmHg 81%
    03:00 +6°C° 0.2 mm 4 mps 740 mmHg 87%
    04:00 +6°C° 0.3 mm 4 mps 740 mmHg 87%
    05:00 +7°C° 0.3 mm 3 mps 740 mmHg 87%
    06:00 +5°C° 0.3 mm 3 mps 740 mmHg 88%
    07:00 +7°C° 0.1 mm 3 mps 740 mmHg 83%
    08:00 +7°C° 0.1 mm 4 mps 740 mmHg 78%
    09:00 +8°C° 0.1 mm 4 mps 740 mmHg 73%
    10:00 +8°C° 0.1 mm 4 mps 739 mmHg 70%
    11:00 +10°C° 0.1 mm 4 mps 739 mmHg 68%
    12:00 +10°C° 0.1 mm 4 mps 739 mmHg 65%
    13:00 +10°C° 0.1 mm 3 mps 738 mmHg 65%
    14:00 +10°C° 0.1 mm 3 mps 738 mmHg 65%
    15:00 +10°C° 0.1 mm 3 mps 738 mmHg 65%
    16:00 +9°C° 0 mm 2 mps 738 mmHg 70%
    17:00 +8°C° 0 mm 2 mps 738 mmHg 74%
    18:00 +7°C° 0 mm 2 mps 738 mmHg 79%
    19:00 +7°C° 0 mm 2 mps 738 mmHg 82%
    20:00 +6°C° 0 mm 2 mps 739 mmHg 85%
    21:00 +5°C° 0 mm 2 mps 739 mmHg 88%
    22:00 +5°C° 0 mm 2 mps 739 mmHg 88%
    23:00 +5°C° 0 mm 2 mps 739 mmHg 88%

    2 April, Sunday

    Time Temperature Precipitation Wind Pressure Humidity
    00:00 +4°C° 0 mm 2 mps 739 mmHg 89%
    01:00 +4°C° 0 mm 2 mps 739 mmHg 89%
    02:00 +4°C° 0 mm 2 mps 739 mmHg 89%
    03:00 +5°C° 0 mm 1 mps 739 mmHg 90%
    04:00 +5°C° 0 mm 1 mps 740 mmHg 89%
    05:00 +4°C° 0 mm 1 mps 740 mmHg 89%
    06:00 +4°C° 0 mm 1 mps 740 mmHg 88%
    07:00 +5°C° 0.1 mm 2 mps 741 mmHg 82%
    08:00 +6°C° 0.1 mm 2 mps 741 mmHg 75%
    09:00 +8°C° 0.1 mm 3 mps 742 mmHg 69%
    10:00 +8°C° 0.1 mm 3 mps 742 mmHg 67%
    11:00 +8°C° 0.1 mm 4 mps 741 mmHg 65%
    12:00 +8°C° 0.1 mm 4 mps 741 mmHg 64%
    13:00 +8°C° 0 mm 4 mps 741 mmHg 63%
    14:00 +10°C° 0 mm 4 mps 741 mmHg 63%
    15:00 +9°C° 0 mm 5 mps 741 mmHg 63%
    16:00 +8°C° 0 mm 4 mps 742 mmHg 68%
    17:00 +7°C° 0 mm 4 mps 742 mmHg 72%
    18:00 +7°C° 0 mm 3 mps 743 mmHg 77%
    19:00 +5°C° 0 mm 3 mps 743 mmHg 80%
    20:00 +4°C° 0 mm 3 mps 743 mmHg 82%
    21:00 +4°C° 0 mm 2 mps 744 mmHg 85%
    22:00 +3°C° 0 mm 2 mps 744 mmHg 84%
    23:00 +3°C° 0 mm 2 mps 744 mmHg 83%
    Show more